Moulins

France     46˚33′56″N   3˚20′06″E
temp.,
°C
wind,
m/s
gust,
m/s
humid.,
%
clouds,
%
prec.,
mm/h
press.,
hPa
HPBL,
m
3 december, thu
thu301:00+4˚w2793100 0.1 1016466
04:00+3˚wsw2795100 0.1 1013363
07:00+2˚sw169597 0.1 1011215
10:00+4˚s268994 0.1 1009343
13:00+7˚s377997 0.3 1004705
16:00+8˚sse31076100 0.0 998818
19:00+7˚s41383100 0.9 9941204
22:00+7˚s51478100 0.2 9901329
4 december, fri
fri401:00+7˚ssw61876100 0.2 9881639
04:00+5˚sw41391100 4.1 9861091
07:00+4˚sw21092100 4.3 987801
10:00+4˚ssw2885100 0.1 988843
13:00+7˚sw2668100 0.1 9871111
16:00+6˚s267368 0.3 987400
19:00+4˚s298051 0.5 988382
22:00+2˚sw298880 0.1 990539
5 december, sat
sat501:00−1˚s248740 0.1 992110
04:00s29833 0.0 993286
07:00sse388111 0.0 993264
10:00+1˚sse38770 0.0 993310
13:00+7˚s38560 0.0 9921183
16:00+7˚sse486245 0.0 991930
19:00+4˚sse3117372 0.1 992822
22:00+3˚sse31175100 0.1 992674
6 december, sun
sun601:00+4˚sse41166100 0.1 993891
04:00+4˚s398299 0.1 994718
07:00+2˚ssw3118294 0.1 996898
10:00+4˚sse387195 0.0 997619
13:00+7˚s366190 0.1 9971246
16:00+4˚wsw368257 0.3 998647
19:00w119749 0.3 100022
22:00+2˚ssw139697 0.1 1001160
7 december, mon
mon701:00+2˚nne009598 0.1 100349
04:00+2˚ssw0195100 0.1 1004108
07:00+1˚nw1297100 0.1 100698
10:00+2˚wnw2491100 0.0 1008298
13:00+4˚wnw2479100 0.0 1009522
16:00+4˚w1479100 0.0 1010552
19:00+1˚wsw1395100 0.0 101197
22:00sw149784 0.0 1012115